TimeEST,TemperatureF,Dew PointF,Humidity,Sea Level PressureIn,VisibilityMPH,Wind Direction,Wind SpeedMPH,Gust SpeedMPH,PrecipitationIn,Events,Conditions,WindDirDegrees,DateUTC
12:15 AM,39.2,30.2,70,30.10,10.0,Calm,Calm,-,0.00,,Clear,0,2013-03-07 05:15:00
12:35 AM,39.2,30.2,70,30.10,10.0,WNW,8.1,-,0.00,,Clear,290,2013-03-07 05:35:00
12:55 AM,39.2,30.2,70,30.11,10.0,WNW,9.2,-,0.00,,Clear,300,2013-03-07 05:55:00
1:15 AM,39.2,30.2,70,30.10,10.0,NW,6.9,-,0.00,,Clear,310,2013-03-07 06:15:00
1:35 AM,39.2,30.2,70,30.12,10.0,NW,6.9,-,0.00,,Clear,310,2013-03-07 06:35:00
1:55 AM,37.4,30.2,75,30.13,10.0,WNW,9.2,-,0.00,,Clear,300,2013-03-07 06:55:00
2:15 AM,37.4,30.2,75,30.12,10.0,NW,5.8,-,0.00,,Clear,320,2013-03-07 07:15:00
2:35 AM,37.4,30.2,75,30.12,10.0,NW,8.1,-,0.00,,Clear,310,2013-03-07 07:35:00
2:55 AM,37.4,30.2,75,30.12,10.0,NW,8.1,-,0.00,,Clear,320,2013-03-07 07:55:00
3:15 AM,37.4,30.2,75,30.13,10.0,NW,8.1,-,0.00,,Clear,320,2013-03-07 08:15:00
3:35 AM,37.4,30.2,75,30.14,10.0,NW,6.9,-,0.00,,Clear,320,2013-03-07 08:35:00
3:55 AM,37.4,30.2,75,30.15,10.0,NW,6.9,-,0.00,,Clear,320,2013-03-07 08:55:00
4:15 AM,37.4,30.2,75,30.16,10.0,NNW,4.6,-,0.00,,Clear,330,2013-03-07 09:15:00
4:35 AM,37.4,30.2,75,30.15,10.0,NW,5.8,-,0.00,,Clear,320,2013-03-07 09:35:00
4:55 AM,35.6,30.2,81,30.15,10.0,NW,4.6,-,0.00,,Clear,320,2013-03-07 09:55:00
5:15 AM,35.6,30.2,81,30.17,10.0,NW,5.8,-,0.00,,Clear,320,2013-03-07 10:15:00
5:35 AM,37.4,30.2,75,30.16,10.0,NNW,6.9,-,0.00,,Clear,330,2013-03-07 10:35:00
5:55 AM,35.6,30.2,81,30.16,10.0,NNW,6.9,-,0.00,,Clear,340,2013-03-07 10:55:00
6:15 AM,35.6,30.2,81,30.17,10.0,NNW,5.8,-,0.00,,Clear,340,2013-03-07 11:15:00
6:35 AM,35.6,30.2,81,30.18,10.0,NW,5.8,-,0.00,,Clear,320,2013-03-07 11:35:00
6:55 AM,35.6,30.2,81,30.20,10.0,NW,6.9,-,0.00,,Clear,320,2013-03-07 11:55:00
7:15 AM,37.4,30.2,75,30.21,10.0,NW,5.8,-,0.00,,Clear,320,2013-03-07 12:15:00
7:35 AM,37.4,30.2,75,30.22,10.0,NNW,5.8,-,0.00,,Clear,330,2013-03-07 12:35:00
7:55 AM,39.2,30.2,70,30.22,10.0,NNW,6.9,-,0.00,,Clear,330,2013-03-07 12:55:00
8:15 AM,41.0,32.0,70,30.23,10.0,NNW,6.9,-,0.00,,Clear,340,2013-03-07 13:15:00
8:35 AM,42.8,32.0,66,30.24,10.0,North,6.9,-,0.00,,Clear,350,2013-03-07 13:35:00
8:55 AM,44.6,32.0,61,30.24,10.0,North,9.2,-,0.00,,Clear,350,2013-03-07 13:55:00
9:15 AM,46.4,32.0,57,30.23,10.0,NNW,9.2,-,0.00,,Clear,340,2013-03-07 14:15:00
9:35 AM,46.4,32.0,57,30.23,10.0,North,9.2,-,0.00,,Clear,350,2013-03-07 14:35:00
9:55 AM,48.2,32.0,54,30.23,10.0,NNW,9.2,-,0.00,,Clear,330,2013-03-07 14:55:00
10:15 AM,50.0,32.0,50,30.24,10.0,NNW,10.4,-,0.00,,Clear,340,2013-03-07 15:15:00
10:35 AM,51.8,30.2,44,30.23,10.0,North,9.2,-,0.00,,Clear,350,2013-03-07 15:35:00
11:15 AM,53.6,30.2,41,30.22,10.0,NNW,6.9,-,0.00,,Clear,330,2013-03-07 16:15:00
11:35 AM,53.6,30.2,41,30.21,10.0,NNW,6.9,-,0.00,,Clear,330,2013-03-07 16:35:00
12:15 PM,53.6,30.2,41,30.21,10.0,NNE,5.8,-,0.00,,Clear,20,2013-03-07 17:15:00
12:35 PM,57.2,28.4,33,30.19,10.0,WNW,8.1,-,0.00,,Clear,290,2013-03-07 17:35:00
12:55 PM,57.2,30.2,36,30.18,10.0,WNW,4.6,-,0.00,,Clear,290,2013-03-07 17:55:00
1:15 PM,57.2,30.2,36,30.17,10.0,West,6.9,-,0.00,,Clear,270,2013-03-07 18:15:00
1:35 PM,59.0,30.2,34,30.15,10.0,Calm,Calm,-,0.00,,Clear,0,2013-03-07 18:35:00
1:55 PM,59.0,30.2,34,30.14,10.0,North,6.9,-,0.00,,Clear,360,2013-03-07 18:55:00
2:15 PM,59.0,30.2,34,30.14,10.0,Calm,Calm,-,0.00,,Clear,0,2013-03-07 19:15:00
2:35 PM,55.4,35.6,47,30.14,10.0,SSE,10.4,-,0.00,,Clear,160,2013-03-07 19:35:00
2:55 PM,55.4,35.6,47,30.14,10.0,South,10.4,16.1,0.00,,Clear,180,2013-03-07 19:55:00
3:15 PM,55.4,35.6,47,30.14,10.0,South,10.4,-,0.00,,Clear,190,2013-03-07 20:15:00
3:35 PM,55.4,35.6,47,30.14,10.0,SSE,9.2,17.3,0.00,,Clear,160,2013-03-07 20:35:00
3:55 PM,62.6,30.2,30,30.13,10.0,WNW,6.9,-,0.00,,Clear,290,2013-03-07 20:55:00
4:15 PM,55.4,35.6,47,30.13,10.0,SSW,12.7,17.3,0.00,,Clear,210,2013-03-07 21:15:00
4:35 PM,55.4,37.4,51,30.13,10.0,SSW,13.8,-,0.00,,Clear,200,2013-03-07 21:35:00
4:55 PM,55.4,37.4,51,30.13,10.0,SSW,12.7,-,0.00,,Clear,210,2013-03-07 21:55:00
5:15 PM,55.4,37.4,51,30.13,10.0,SSW,11.5,-,0.00,,Clear,210,2013-03-07 22:15:00
5:35 PM,53.6,39.2,58,30.14,10.0,SSW,12.7,17.3,0.00,,Clear,210,2013-03-07 22:35:00
5:55 PM,53.6,39.2,58,30.14,10.0,SSW,8.1,-,0.00,,Clear,210,2013-03-07 22:55:00
6:15 PM,51.8,37.4,58,30.15,10.0,SW,4.6,-,0.00,,Clear,220,2013-03-07 23:15:00
6:35 PM,51.8,37.4,58,30.15,10.0,SW,6.9,-,0.00,,Clear,230,2013-03-07 23:35:00
6:55 PM,50.0,37.4,62,30.17,10.0,SW,4.6,-,0.00,,Clear,230,2013-03-07 23:55:00
8:55 PM,44.6,37.4,76,30.19,10.0,Calm,Calm,-,0.00,,Clear,0,2013-03-08 01:55:00
9:15 PM,44.6,37.4,76,30.20,10.0,Calm,Calm,-,0.00,,Clear,0,2013-03-08 02:15:00
9:35 PM,42.8,39.2,87,30.21,10.0,Calm,Calm,-,0.00,,Clear,0,2013-03-08 02:35:00
9:55 PM,44.6,37.4,76,30.21,10.0,Calm,Calm,-,0.00,,Clear,0,2013-03-08 02:55:00
10:15 PM,42.8,37.4,81,30.21,10.0,Calm,Calm,-,0.00,,Clear,0,2013-03-08 03:15:00
10:35 PM,41.0,37.4,87,30.21,10.0,Calm,Calm,-,0.00,,Clear,0,2013-03-08 03:35:00
10:55 PM,39.2,35.6,87,30.21,10.0,Calm,Calm,-,0.00,,Clear,0,2013-03-08 03:55:00
11:15 PM,39.2,35.6,87,30.21,10.0,Calm,Calm,-,0.00,,Clear,0,2013-03-08 04:15:00
11:35 PM,39.2,35.6,87,30.21,10.0,Calm,Calm,-,0.00,,Clear,0,2013-03-08 04:35:00
11:55 PM,39.2,35.6,87,30.21,10.0,Calm,Calm,-,0.00,,Clear,0,2013-03-08 04:55:00